Philadelphia, PA

10:22 PM EDT on October 23, 2017 (GMT -0400)
Philadelphia International

Weather History for KPHL - January, 2014

Change the Weather History Date:

Wednesday, January 8, 2014

  Actual Average Record
Temperature  
Mean Temperature 18 °F 33 °F  
Max Temperature 26 °F 40 °F 69 °F (1998)
Min Temperature 10 °F 26 °F 2 °F (1970)
Degree Days  
Heating Degree Days 47 32  
Month to date heating degree days 323 254  
Since 1 July heating degree days 1936 1924  
Cooling Degree Days 0 0  
Month to date cooling degree days 0 0  
Year to date cooling degree days 0 0  
Moisture  
Dew Point -2 °F    
Average Humidity 42    
Maximum Humidity 52    
Minimum Humidity 32    
Precipitation  
Precipitation 0.00 in 0.09 in 1.20 in (1923)
Month to date precipitation 1.23 0.76  
Year to date precipitation 1.23 0.76  
Snow  
Snow 0.00 in 0.20 in 3.80 in (1988)
Month to date snowfall 9.0 1.3  
Since 1 July snowfall 20.2 5.0  
Snow Depth 0.00 in    
Sea Level Pressure  
Sea Level Pressure 30.54 in    
Wind  
Wind Speed 8 mph (WSW)    
Max Wind Speed 15 mph    
Max Gust Speed 18 mph    
Visibility 10 miles    
Events      
T = Trace of Precipitation, MM = Missing Value Source: NWS Daily Summary

Daily Weather History Graph

Daily Weather History Graph

Search for Another Location

Airport or City:

Trip Planner

Search our weather history database for the weather conditions in past years. The results will help you decide how hot, cold, wet, or windy it might be!

Date:

Astronomy

Jan. 08, 2014 Rise Set
Actual Time 7:22 AM EST 4:53 PM EST
Civil Twilight 6:52 AM EST 5:23 PM EST
Nautical Twilight 6:18 AM EST 5:56 PM EST
Astronomical Twilight 5:46 AM EST 6:29 PM EST
Moon 11:44 AM EST (1/8) 12:25 AM EST (1/8)
Length of Visible Light 10h 30m
Length of Day
9h 30m
First Quarter, 56% of the Moon is Illuminated
Jan 8
First Quarter
Jan 15
Full
Jan 24
Last Quarter
Jan 30
New
Feb 6
First Quarter

Hourly Weather History & Observations

Time (EST) Temp. Windchill Dew Point Humidity Pressure Visibility Wind Dir Wind Speed Gust Speed Precip Events Conditions
12:54 AM 12.0 °F -1.3 °F -6.0 °F 44% 30.47 in 10.0 mi West 10.4 mph - N/A   Clear
1:54 AM 10.9 °F -4.1 °F -6.0 °F 47% 30.50 in 10.0 mi West 12.7 mph - N/A   Clear
2:54 AM 10.9 °F -2.6 °F -6.0 °F 47% 30.52 in 10.0 mi West 10.4 mph - N/A   Clear
3:54 AM 10.9 °F -1.8 °F -5.1 °F 49% 30.52 in 10.0 mi West 9.2 mph - N/A   Clear
4:54 AM 10.9 °F -1.8 °F -6.0 °F 47% 30.52 in 10.0 mi West 9.2 mph - N/A   Clear
5:54 AM 10.0 °F -1.9 °F -4.0 °F 53% 30.54 in 10.0 mi WSW 8.1 mph - N/A   Clear
6:54 AM 10.9 °F -2.6 °F -5.1 °F 49% 30.56 in 10.0 mi West 10.4 mph - N/A   Clear
7:54 AM 12.0 °F -1.3 °F -4.0 °F 49% 30.59 in 10.0 mi WSW 10.4 mph - N/A   Scattered Clouds
8:54 AM 14.0 °F 2.0 °F -5.1 °F 43% 30.61 in 10.0 mi WNW 9.2 mph - N/A   Mostly Cloudy
9:54 AM 15.1 °F 3.3 °F -5.1 °F 41% 30.61 in 10.0 mi West 9.2 mph - N/A   Mostly Cloudy
10:54 AM 16.0 °F 6.3 °F -4.0 °F 41% 30.60 in 10.0 mi West 6.9 mph - N/A   Mostly Cloudy
11:54 AM 19.0 °F 8.2 °F -4.0 °F 36% 30.56 in 10.0 mi West 9.2 mph - N/A   Scattered Clouds
12:54 PM 21.0 °F 12.4 °F -2.0 °F 36% 30.53 in 10.0 mi WSW 6.9 mph - N/A   Mostly Cloudy
1:54 PM 23.0 °F 11.1 °F -2.0 °F 34% 30.53 in 10.0 mi SW 12.7 mph - N/A   Mostly Cloudy
2:54 PM 24.1 °F 14.4 °F -2.0 °F 32% 30.53 in 10.0 mi SW 9.2 mph - N/A   Scattered Clouds
3:54 PM 25.0 °F 18.1 °F -2.0 °F 31% 30.53 in 10.0 mi West 5.8 mph - N/A   Scattered Clouds
4:54 PM 24.1 °F 19.7 °F -2.0 °F 32% 30.52 in 10.0 mi WNW 3.5 mph - N/A   Scattered Clouds
5:54 PM 24.1 °F 17.0 °F 1.0 °F 37% 30.54 in 10.0 mi SSW 5.8 mph - N/A   Scattered Clouds
6:54 PM 23.0 °F 17.0 °F 3.0 °F 42% 30.56 in 10.0 mi SSW 4.6 mph - N/A   Mostly Cloudy
7:54 PM 23.0 °F 15.8 °F 5.0 °F 46% 30.56 in 10.0 mi SSW 5.8 mph - N/A   Mostly Cloudy
8:54 PM 24.1 °F - 5.0 °F 44% 30.56 in 10.0 mi Calm Calm - N/A   Mostly Cloudy
9:54 PM 25.0 °F 19.3 °F 6.1 °F 45% 30.55 in 10.0 mi South 4.6 mph - N/A   Overcast
10:54 PM 25.0 °F 19.3 °F 7.0 °F 46% 30.54 in 10.0 mi South 4.6 mph - N/A   Overcast
11:54 PM 25.0 °F 20.7 °F 8.1 °F 49% 30.53 in 10.0 mi SSW 3.5 mph - N/A   Overcast